Location: Marsån
(66.4167°N, 22.2833°E)
Time: 11:41:06
(UTC+00:00)

SPOT 3 Rocket - Pass Details

Date: 24 February 2024
Orbit: 777 x 793 km, 98.6° (Epoch: 15 April)

Event Time Altitude Azimuth Distance (km) Brightness Sun altitude
Exits shadow 18:04:56 28° 108° (ESE) 1,455 4.3 -16.7°
Maximum altitude 18:07:18 47° 52° (NE) 1,047 3.9 -16.9°
Drops below altitude 10° 18:12:18 10° 340° (NNW) 2,373 6.5 -17.4°
Sets 18:14:42 0° 335° (NNW) 3,307 7.4 -17.6°
